SCP
6 5 5 5 4 4 5 8 9 7 5 4 4 4 4 4 4 3 2 2 2 2 2 1 1 1 1 1 1 2 2 1 1 1 1 1 1 1 1 1 1 1 1
5 5 5 4 4 4 6 7 7 5 4 4 4 4 4 4 3 3 2 2 2 2 2 2 1 1 1 2 2 2 2 2 2 2 1 1 1 1 1 1 1 1 1
4 5 4 4 4 5 7 7 5 4 3 3 4 4 4 3 3 2 2 2 2 2 2 2 1 1 1 2 2 2 2 2 2 2 2 1 1 1 1 1 1 2 2
3 3 3 4 5 6 7 6 4 3 3 3 3 4 4 4 3 3 2 2 2 2 2 2 2 1 1 2 2 2 2 2 3 3 2 2 2 1 2 2 2 2 2
3 3 3 4 5 6 6 5 5 4 3 3 4 4 4 4 3 3 2 3 3 2 2 2 2 1 1 1 1 2 2 2 3 3 3 2 2 2 2 2 2 3 2
5 5 5 5 6 6 6 5 6 5 4 4 4 4 4 3 2 2 2 2 3 2 2 2 2 2 1 1 1 1 1 1 2 3 3 2 2 2 1 2 2 3 2
7 7 6 6 5 5 5 6 7 7 6 5 4 4 4 3 2 1 1 2 2 2 3 3 3 3 2 2 1 1 1 1 1 2 2 2 2 2 2 2 2 3 3
8 7 6 5 5 4 4 5 7 8 8 7 6 5 5 4 2 1 1 2 2 3 3 4 4 4 3 2 2 2 2 1 1 1 2 2 2 2 2 2 2 3 3
7 7 6 5 5 4 4 5 6 8 10 9 8 7 6 5 3 1 1 2 3 3 3 4 4 4 3 2 2 2 2 2 1 1 1 1 1 1 1 2 2 3 3
5 5 6 7 7 7 6 6 6 7 9 9 8 7 7 6 4 2 1 2 3 3 4 4 4 3 2 2 2 2 2 2 2 1 1 1 1 1 1 2 2 2 3
4 4 5 6 8 8 7 7 7 7 8 8 8 7 7 6 4 2 1 2 3 4 4 4 4 2 1 1 1 2 2 2 2 2 1 1 2 2 2 2 2 2 2
3 3 4 4 5 5 6 7 7 7 8 8 8 8 7 5 4 2 1 2 2 4 5 5 4 2 1 0 1 1 1 2 2 2 2 2 2 2 2 2 1 1 1
4 4 4 4 4 4 5 6 6 7 9 10 10 9 7 5 4 3 2 2 1 3 4 4 3 1 1 0 0 1 1 2 2 2 1 2 2 2 2 2 1 1 1
5 5 6 7 6 5 5 6 7 8 9 9 10 9 8 5 5 4 4 3 2 2 3 3 2 1 1 1 1 1 2 2 2 2 2 2 2 2 2 2 2 2 2
6 6 7 7 7 6 6 7 8 8 8 7 8 7 6 5 4 4 4 4 3 2 2 3 3 3 3 3 3 3 3 3 2 2 2 2 2 2 2 2 2 2 3
6 6 6 6 6 6 7 7 7 6 5 4 4 4 4 3 2 2 2 2 2 2 2 3 4 3 3 4 4 4 4 3 3 3 2 2 2 2 2 2 2 2 2
7 6 6 6 7 7 7 6 5 4 3 2 2 2 2 1 1 1 1 1 1 1 2 4 4 3 3 3 4 4 4 3 2 2 2 2 2 2 2 2 2 2 2
6 7 7 8 7 7 6 6 5 4 3 2 2 1 1 0 0 0 0 0 1 1 2 3 4 3 2 2 2 3 2 2 2 2 2 2 2 2 2 2 2 2 2
6 6 6 6 6 5 5 5 4 3 3 3 2 1 1 1 0 0 0 1 1 2 2 3 3 3 2 2 2 2 2 2 2 2 2 2 2 2 3 3 3 3 3
5 5 4 3 3 3 3 4 4 3 3 3 3 2 2 2 2 1 1 1 2 2 3 3 3 3 3 3 3 3 3 2 2 2 2 2 2 2 3 3 3 3 3
4 4 2 2 1 1 2 2 2 2 2 2 2 2 2 3 3 3 3 3 3 3 4 4 4 4 4 4 4 4 4 3 3 3 3 3 3 2 2 3 3 3 3
3 3 2 1 1 1 1 1 1 1 1 1 2 2 2 2 3 4 4 4 4 4 4 4 4 4 3 3 3 3 3 3 3 3 3 3 3 3 2 2 2 3 3
3 2 2 1 1 1 1 1 1 1 1 1 1 2 1 2 2 3 3 3 3 3 3 3 3 2 2 2 2 2 2 2 2 2 2 2 2 2 2 2 2 2 3
2 2 2 1 1 1 1 1 1 1 1 1 1 2 1 1 1 2 2 2 2 2 2 2 2 1 1 0 0 0 0 1 1 1 1 1 1 2 2 2 2 2 2
1 1 1 1 1 1 1 1 1 1 1 1 2 2 2 1 1 1 1 1 1 1 1 1 1 1 0 0 0 0 0 0 0 0 1 1 1 1 1 1 1 1 1
1 1 1 1 1 1 2 2 2 1 1 1 2 2 2 1 1 1 1 1 1 1 1 1 1 0 0 0 0 0 0 0 0 0 0 0 1 1 1 1 1 1 1
Wind_Speed
5 5 4 5 5 5 5 4 4 3 3 3 3 3 3 3 3 3 2 2 3 2 2 2 2 3 3 3 3 3 4 4 4 3 1 1 1 3 1 3 3 4 3
4 5 5 4 4 5 5 5 5 4 4 5 4 4 4 3 3 3 3 3 3 3 2 2 2 2 2 3 2 3 3 3 4 3 2 2 3 3 2 4 4 3 3
5 5 5 5 4 4 4 4 4 5 4 4 4 4 4 4 4 4 3 3 3 3 3 3 2 3 3 2 3 3 3 2 3 3 3 2 2 2 3 3 4 3 5
5 5 5 4 4 4 4 4 4 4 5 4 4 4 4 5 4 4 4 4 3 3 3 3 3 3 2 2 2 3 3 3 3 4 3 3 2 2 3 3 3 3 4
4 4 4 3 4 4 4 4 4 4 4 4 4 4 4 5 4 3 4 4 4 4 3 3 3 2 2 3 3 2 2 3 3 3 3 3 2 2 3 3 3 3 3
4 4 3 3 3 4 4 4 4 4 4 4 4 4 5 3 3 3 4 4 4 4 4 3 3 3 3 3 2 3 4 4 4 4 4 3 3 3 3 4 4 4 4
4 4 4 4 4 3 3 3 4 4 4 4 4 4 4 3 4 4 4 5 4 4 3 3 4 2 3 3 4 5 4 4 5 5 4 4 3 3 3 5 4 5 5
4 4 4 4 4 4 3 3 3 3 4 4 4 4 4 4 5 5 5 6 5 5 4 4 4 3 3 3 4 3 4 3 4 5 4 4 3 2 4 5 5 5 6
3 3 3 4 4 4 4 4 4 3 4 4 4 4 4 4 5 6 5 5 4 5 5 5 5 4 1 3 5 4 4 3 3 3 2 3 3 3 4 5 4 5 5
2 3 3 3 4 4 4 4 3 3 4 4 3 3 4 4 4 6 6 5 5 5 4 5 4 3 2 3 5 5 5 4 3 4 4 6 6 6 7 6 6 5 5
2 2 3 3 4 3 3 3 3 4 4 4 3 3 3 4 4 6 6 5 5 5 4 4 3 5 4 4 6 6 4 5 5 5 4 4 4 4 5 4 5 5 5
2 3 3 3 3 3 3 3 3 4 4 4 3 3 3 3 3 4 6 7 6 6 5 4 2 6 6 6 6 4 3 6 6 5 4 4 4 4 3 3 4 5 6
2 2 2 3 3 3 3 4 4 4 3 3 3 3 3 3 3 5 7 8 7 6 4 2 1 5 6 7 7 6 6 6 5 5 5 4 4 3 3 3 4 5 6
1 2 2 3 3 2 3 3 3 3 3 3 4 4 3 3 3 3 4 5 6 7 5 3 5 6 6 4 5 7 6 5 5 5 5 4 4 3 4 4 4 4 5
1 1 2 2 2 2 2 1 2 2 1 3 3 3 4 4 1 2 3 3 3 3 3 4 4 4 5 5 4 4 5 5 5 5 5 5 4 4 4 4 4 5 5
1 1 2 2 1 2 1 1 0 1 1 2 2 4 2 1 1 2 2 3 3 3 5 5 5 5 5 5 4 4 4 5 5 5 5 5 5 5 5 4 4 5 6
2 2 2 2 1 1 2 2 2 2 3 4 4 4 4 2 2 3 3 3 4 5 6 5 4 4 4 4 4 4 4 4 4 5 5 4 5 5 5 5 5 5 5
2 1 1 2 2 2 2 3 3 3 3 3 4 5 5 5 4 4 4 4 4 5 5 5 4 4 4 4 4 4 5 4 4 5 5 5 5 5 5 5 5 5 5
2 2 1 2 3 2 3 3 3 4 3 3 2 3 5 5 6 6 6 5 5 4 4 4 4 4 4 4 4 4 5 5 4 5 5 5 5 5 5 6 5 5 6
1 1 2 3 3 3 3 3 3 4 4 3 3 2 2 4 4 4 5 5 5 5 5 4 4 4 4 4 4 4 4 4 4 5 5 4 5 5 6 6 6 5 6
2 1 3 3 3 2 3 3 3 4 4 4 3 1 1 4 4 4 4 5 5 5 5 4 4 4 4 4 4 4 5 5 5 5 5 5 5 5 5 5 5 6 6
2 2 2 3 2 2 3 3 4 4 4 5 4 2 4 5 4 4 4 4 4 4 4 4 4 4 3 3 3 4 5 5 5 4 5 5 5 5 5 5 5 5 5
3 3 3 3 3 2 4 4 4 4 4 4 4 4 3 4 4 4 4 3 3 3 3 3 4 4 3 3 3 4 5 4 4 4 5 6 6 5 5 6 6 6 6
3 4 4 3 3 3 4 4 4 4 4 5 4 4 4 4 4 4 4 4 4 4 4 4 4 5 5 4 4 4 3 3 5 5 7 7 7 6 6 6 7 7 7
4 4 4 4 4 4 4 4 4 5 5 5 4 4 4 4 4 4 4 4 4 4 4 4 3 4 6 6 6 4 1 2 4 6 6 6 8 8 8 8 7 7 7
5 5 5 5 5 5 5 5 5 5 5 5 4 4 5 5 5 4 4 4 4 4 4 4 5 6 6 6 5 3 1 2 3 5 6 6 7 7 7 6 8 7 7
Wind_Direction
193 199 202 201 207 211 214 216 216 219 216 218 216 212 198 193 191 195 213 207 215 222 241 235 261 296 288 280 268 262 260 261 263 266 225 163 246 280 254 255 241 234 188
190 192 197 197 204 210 205 205 207 206 211 212 213 210 207 201 206 206 218 221 222 226 236 245 255 261 267 281 286 279 275 270 257 258 250 218 221 245 256 263 259 250 251
189 188 188 195 200 208 208 204 203 199 202 207 207 209 210 209 213 216 218 229 228 230 232 239 250 264 270 278 275 277 271 259 251 248 246 249 241 245 250 254 264 276 268
184 182 190 199 202 202 205 207 203 199 201 208 211 210 209 214 216 221 221 225 228 231 237 245 253 262 268 265 252 258 269 273 253 250 246 236 234 233 254 257 253 244 266
187 185 191 200 202 201 204 208 203 208 210 204 206 206 209 213 211 216 227 221 221 230 236 242 246 260 319 302 300 291 272 265 262 257 253 252 247 249 258 271 273 273 256
190 194 186 189 190 195 202 205 202 204 212 212 212 211 215 213 148 189 242 234 226 230 238 244 234 209 199 209 268 303 301 276 277 273 264 265 270 266 274 275 277 276 271
196 196 186 186 182 189 201 198 202 203 205 210 218 220 223 200 168 184 219 243 236 235 237 245 251 210 202 219 209 218 238 255 271 280 280 279 272 275 278 271 278 287 291
199 197 193 191 187 186 194 202 206 206 208 213 217 222 226 204 175 190 210 228 240 239 237 236 243 246 236 250 248 236 237 230 242 252 275 282 283 278 263 268 273 265 262
196 198 198 197 199 199 200 205 207 208 208 217 217 222 224 209 179 191 213 228 229 238 240 237 240 234 213 250 247 245 245 235 212 221 268 281 297 276 272 264 258 260 265
200 205 203 202 206 207 205 208 205 208 211 217 208 217 226 227 186 191 212 235 232 234 229 228 214 234 205 228 244 249 250 254 257 227 222 225 229 222 229 252 261 262 269
199 197 189 194 202 201 203 209 211 212 214 219 212 217 225 233 198 190 207 237 245 246 242 234 207 176 208 226 253 260 265 271 255 248 241 239 235 232 232 239 255 266 270
204 201 190 197 211 183 195 207 212 217 214 212 217 231 229 227 229 202 204 228 258 253 252 249 206 175 206 227 238 244 253 260 254 250 250 249 249 248 246 251 253 263 270
223 210 202 206 214 207 201 201 202 204 221 219 220 234 241 235 211 196 205 219 238 254 266 298 232 193 207 218 219 224 232 244 251 251 251 252 255 257 258 245 238 238 247
246 229 214 205 208 208 225 214 213 216 224 233 238 241 238 237 239 226 225 218 220 234 246 218 195 200 223 233 210 215 231 245 254 255 256 255 251 241 243 254 259 250 246
259 250 247 227 210 220 232 263 251 252 268 262 264 259 252 247 259 324 282 259 256 259 260 239 228 214 219 222 225 231 236 233 239 251 257 256 254 255 254 254 258 263 262
306 293 271 255 227 230 222 238 129 240 172 221 273 283 281 299 210 226 259 277 260 239 241 237 232 231 235 234 233 236 239 246 252 256 258 257 256 256 254 252 250 254 261
311 309 301 292 255 243 245 250 250 215 203 216 226 240 249 242 224 221 223 238 240 220 233 240 238 239 242 243 241 245 249 244 249 253 252 253 258 259 254 251 249 254 259
286 290 277 286 280 265 259 261 263 264 246 228 206 208 218 222 221 217 209 220 225 222 244 250 244 241 241 243 248 254 257 252 244 250 255 256 256 260 259 254 251 252 257
280 290 299 297 285 278 270 266 266 266 264 261 241 193 198 213 218 215 208 238 247 239 245 252 253 249 244 241 245 251 256 254 254 260 259 260 258 259 263 263 259 253 257
276 307 282 276 274 272 270 272 273 271 271 270 267 267 198 211 230 217 221 245 258 256 252 249 249 252 250 247 245 247 252 253 251 254 258 258 261 261 261 264 266 262 255
283 245 235 257 266 273 276 277 277 276 277 280 276 280 266 261 256 250 242 240 250 257 258 256 253 248 246 244 247 249 255 258 254 256 260 258 261 263 265 264 264 265 262
283 276 269 273 277 280 287 280 276 275 275 275 278 248 195 248 265 260 257 255 255 257 258 254 254 253 255 254 254 256 256 257 258 255 262 265 262 262 264 264 264 267 265
277 277 277 278 276 273 270 277 281 281 279 279 280 279 256 257 263 264 262 260 264 263 261 260 260 260 255 253 260 260 263 267 268 271 270 266 263 259 259 260 260 263 261
282 281 280 279 273 271 272 276 279 282 284 282 279 276 272 266 268 269 266 261 257 258 255 252 253 257 258 261 260 257 264 290 287 270 267 269 266 263 260 259 260 261 262
282 282 281 280 277 274 272 272 274 278 280 280 279 278 276 273 269 269 267 263 259 261 266 265 262 259 257 258 261 269 329 329 295 293 270 263 261 261 261 264 263 261 259
283 277 275 276 276 276 273 270 269 272 274 276 280 284 285 284 280 275 271 267 262 257 259 258 258 263 267 261 262 270 233 244 266 281 275 263 258 257 259 263 267 265 260